This is the latest recevied weather packets stored in our database for station/object W0DXV. If no packets are shown the sender has not sent any weather packets the latest 10 day(s).
| Time | Temp. | Humidity | Pressure | Rain* | Wind** | Luminosity | Snow |
|---|---|---|---|---|---|---|---|
| 1777904567 | 18.89° C | 53% | 1013.2 hPa | 0 mm | - | 532 W/m² | - |
| 1777904263 | 18.33° C | 58% | 1013.2 hPa | 0 mm | - | 520 W/m² | - |
| 1777903961 | 17.22° C | 57% | 1013.1 hPa | 0 mm | - | 507 W/m² | - |
| 1777903657 | 17.78° C | 59% | 1013.3 hPa | 0 mm | - | 496 W/m² | - |
| 1777903353 | 17.78° C | 60% | 1013.3 hPa | 0 mm | - | 481 W/m² | - |
| 1777903050 | 17.22° C | 62% | 1013.3 hPa | 0 mm | - | 467 W/m² | - |
| 1777902746 | 16.67° C | 61% | 1013.2 hPa | 0 mm | - | 453 W/m² | - |
| 1777902444 | 16.67° C | 64% | 1013.3 hPa | 0 mm | - | 438 W/m² | - |
| 1777902140 | 15.56° C | 64% | 1013.3 hPa | 0 mm | - | 426 W/m² | - |
| 1777901839 | 15.56° C | 67% | 1013.2 hPa | 0 mm | - | 408 W/m² | - |
| 1777901536 | 15° C | 64% | 1013.2 hPa | 0 mm | - | 351 W/m² | - |
| 1777901233 | 14.44° C | 68% | 1013.4 hPa | 0 mm | - | 302 W/m² | - |
| 1777900930 | 13.89° C | 70% | 1013.1 hPa | 0 mm | - | 260 W/m² | - |
| 1777900628 | 14.44° C | 70% | 1013.4 hPa | 0 mm | - | 267 W/m² | - |
| 1777900325 | 14.44° C | 69% | 1013.2 hPa | 0 mm | - | 302 W/m² | - |
| 1777900022 | 13.89° C | 71% | 1013.1 hPa | 0 mm | - | 315 W/m² | - |
| 1777899718 | 13.33° C | 70% | 1013.2 hPa | 0 mm | - | 296 W/m² | - |
| 1777899415 | 12.78° C | 73% | 1013.3 hPa | 0 mm | - | 268 W/m² | - |
| 1777899113 | 12.22° C | 75% | 1013.3 hPa | 0 mm | - | 261 W/m² | - |
| 1777898810 | 11.67° C | 75% | 1013.3 hPa | 0 mm | - | 190 W/m² | - |
| 1777898508 | 11.11° C | 77% | 1013.4 hPa | 0 mm | - | 79 W/m² | - |
| 1777898205 | 10.56° C | 80% | 1013.4 hPa | 0 mm | - | 177 W/m² | - |
| 1777897902 | 9.44° C | 87% | 1013.2 hPa | 0 mm | - | 143 W/m² | - |
| 1777897598 | 8.89° C | 88% | 1013.3 hPa | 0 mm | - | 157 W/m² | - |
| 1777897293 | 8.33° C | 87% | 1013.3 hPa | 0 mm | - | 135 W/m² | - |
* Rain latest hour (hover to see other rain measurements)
** Current wind speed in m/s (hover to see current wind gust speed)